Regional Weather Roundup
Issued by NWS

Home | Current Version | Previous Version | Graphics & Text | Print | Product List | Glossary On
Versions: 1 2 3 4 5 6 7 8 9 10 11 12 13 14 15 16 17 18 19 20 21 22 23 24 25 26 27
000
ASUS45 KCYS 281610
RWRWY

WYOMING REGIONAL WEATHER ROUNDUP
NATIONAL WEATHER SERVICE CHEYENNE WY
1000 AM MDT SAT MAY 28 2016

NOTE:  "FAIR" INDICATES FEW OR NO CLOUDS BELOW 12,000 FEET
WITH NO SIGNIFICANT WEATHER AND/OR OBSTRUCTIONS TO VISIBILITY.

WYZ001-281700-
YELLOWSTONE NATIONAL PARK

CITY           SKY/WX    TMP DP  RH WIND       PRES   REMARKS
LK YELLOWSTONE   N/A     44  25  47 VRB6      30.11S
W YELLOWSTONE  NOT AVBL

$$
WYZ002>013-054>058-071-098>099-281700-
NORTHERN WYOMING

CITY           SKY/WX    TMP DP  RH WIND       PRES   REMARKS
JACKSON        SUNNY     52  21  30 S13G18    30.08S
CODY           FAIR      54  43  66 NE9       30.00F
GREYBULL       CLOUDY    53  47  79 VRB3      29.98S
WORLAND        PTSUNNY   57  45  64 CALM      29.99S
SHERIDAN       CLOUDY    55  44  66 N7        30.00R
BUFFALO        CLOUDY    54  43  66 N14G25    30.01S
GILLETTE       FAIR      58  45  62 VRB6      29.97R
HULETT         PTSUNNY   59  48  67 CALM      29.98R
NEWCASTLE      FAIR      59  41  51 W8        29.96R

$$
WYZ014>020-022>026-101>103-281700-
CENTRAL WYOMING

CITY           SKY/WX    TMP DP  RH WIND       PRES   REMARKS
BIG PINEY      PTSUNNY   51  33  50 SE7       30.11S
PINEDALE       PTSUNNY   50  30  46 W3        30.12S
DUBOIS         FAIR      50  19  29 W20G30    30.05S
LANDER         FAIR      57  39  51 N6        30.00S
RIVERTON       FAIR      58  40  51 MISG      30.01S
CASPER         PTSUNNY   59  41  51 SW13      29.99R
DOUGLAS          N/A    N/A N/A N/A MISG      29.98S

$$
WYZ021-027>030-104>119-281700-
SOUTHERN WYOMING

CITY           SKY/WX    TMP DP  RH WIND       PRES   REMARKS
EVANSTON       FAIR      52  36  54 W7        30.12R
KEMMERER         N/A     50  36  57 SW6       30.13S
FORT BRIDGER   PTSUNNY   54  39  58 W3        30.15R
ROCK SPRINGS   FAIR      54  34  46 SW12      30.10S
DIXON          PTSUNNY   55  42  60 W8        30.14S
RAWLINS        FAIR      56  35  45 W18G30    30.09S
SARATOGA       FAIR      55  36  47 W20G28    30.11S
LARAMIE        PTSUNNY   54  34  46 VRB7      30.07S
CHEYENNE       PTSUNNY   57  38  48 W5        30.04S
TORRINGTON     FAIR      62  46  55 NW7       29.95F
PINE BLUFFS    FAIR      63  39  42 NW12G18   30.01S

$$




USA.gov is the U.S. government's official web portal to all federal, state and local government web resources and services.